SCP
2 1 1 1 0 0 0 0 0 0 0 0 0 0 0 0 0 0 0 0 0 0 0 0 0 0 0 0 0 0 0 0 0 0 0 0 0 0 0 0 0 0 0
2 1 1 0 0 0 0 0 0 0 0 0 0 0 0 0 0 0 0 0 0 0 0 0 0 0 0 0 0 0 0 0 0 0 0 0 0 0 0 0 0 0 0
1 1 0 0 0 0 0 0 0 0 0 0 0 0 0 0 0 0 0 0 0 0 0 0 0 0 0 0 0 0 0 0 0 0 0 0 0 0 0 0 0 0 0
0 0 0 0 0 0 0 0 0 0 0 0 0 0 0 0 0 0 0 0 0 0 0 0 0 0 0 0 0 0 0 0 0 0 0 0 0 0 0 0 0 0 0
0 0 0 0 0 0 0 0 0 0 0 0 0 0 0 0 0 0 0 0 0 0 0 0 0 0 0 0 0 0 0 0 0 0 0 0 0 0 0 0 0 0 0
0 0 0 0 0 0 0 0 0 0 0 0 0 0 0 0 0 0 0 0 0 0 0 0 0 0 0 0 0 0 0 0 0 0 0 0 0 0 0 0 0 0 0
0 0 0 0 0 0 0 0 0 0 0 0 0 0 0 0 0 0 0 0 0 0 0 0 0 0 0 0 0 0 0 0 0 0 0 0 0 0 0 0 0 0 0
0 0 0 0 0 0 0 0 0 0 0 0 0 0 0 0 0 0 0 0 0 0 0 0 0 0 0 0 0 0 0 0 0 0 0 0 0 0 0 0 0 0 0
0 0 0 0 0 0 0 0 0 0 0 0 0 0 0 0 0 0 0 0 0 0 0 0 0 0 0 0 0 0 0 0 0 0 0 0 0 0 0 0 0 0 0
0 0 0 0 0 0 0 0 0 0 0 0 0 0 0 0 0 0 0 0 0 0 0 0 0 0 0 0 0 0 0 0 0 0 0 0 0 0 0 0 0 0 0
0 0 0 0 0 0 0 0 0 0 0 0 0 0 0 0 0 0 0 0 0 0 0 0 0 0 0 0 0 0 0 0 0 0 0 0 0 0 0 0 0 0 0
0 0 0 0 0 0 0 0 0 0 0 0 0 0 0 0 0 0 0 0 0 0 0 0 0 0 0 0 0 0 0 0 0 0 0 0 0 0 0 0 0 0 0
0 0 0 0 0 0 0 0 0 0 0 0 0 0 0 0 0 0 0 0 0 0 0 0 0 0 0 0 0 0 0 0 0 0 0 0 0 0 0 0 0 0 0
0 0 0 0 0 0 0 0 0 0 0 0 0 0 0 0 0 0 0 0 0 0 0 0 0 0 0 0 0 0 0 0 0 0 0 0 0 0 0 0 0 0 0
0 0 0 0 0 0 0 0 0 0 0 0 0 0 0 0 0 0 0 0 0 0 0 0 0 0 0 0 0 0 0 0 0 0 0 0 0 0 0 0 0 0 0
0 0 0 0 0 0 0 0 0 0 0 0 0 0 0 0 0 0 0 0 0 0 0 0 0 0 0 0 0 0 0 0 0 0 0 0 0 0 0 0 0 0 0
0 0 0 0 0 0 0 0 0 0 0 0 0 0 0 0 0 0 0 0 0 0 0 0 0 0 0 0 0 0 0 0 0 0 0 0 0 0 0 0 0 0 0
0 0 0 0 0 0 0 0 0 0 0 0 0 0 0 0 0 0 0 0 0 0 0 0 0 0 0 0 0 0 0 0 0 0 0 0 0 0 0 0 0 0 0
0 0 0 0 0 0 0 0 0 0 0 0 0 0 0 0 0 0 0 0 0 0 0 0 0 0 0 0 0 0 0 0 0 0 0 0 0 0 0 0 0 0 0
0 0 0 0 0 0 0 0 0 0 0 0 0 0 0 0 0 0 0 0 0 0 0 0 0 0 0 0 0 0 0 0 0 0 0 0 0 0 0 0 0 0 0
0 0 0 0 0 0 0 0 0 0 0 0 0 0 0 0 0 0 0 0 0 0 0 0 0 0 0 0 0 0 0 0 0 0 0 0 0 0 0 0 0 0 0
0 0 0 0 0 0 0 0 0 0 0 0 0 0 0 0 0 0 0 0 0 0 0 0 0 0 0 0 0 0 0 0 0 0 0 0 0 0 0 0 0 0 0
0 0 0 0 0 0 0 0 0 0 0 0 0 0 0 0 0 0 0 0 0 0 0 0 0 0 0 0 0 0 0 0 0 0 0 0 0 0 0 0 0 0 0
0 0 0 0 0 0 0 0 0 0 0 0 0 0 0 0 0 0 0 0 0 0 0 0 0 0 0 0 0 0 0 0 0 0 0 0 0 0 0 0 0 0 0
0 0 0 0 0 0 0 0 0 0 0 0 0 0 0 0 0 0 0 0 0 0 0 0 0 0 0 0 0 0 0 0 0 0 0 0 0 0 0 0 0 0 0
0 0 0 0 0 0 0 0 0 0 0 0 0 0 0 0 0 0 0 0 0 0 0 0 0 0 0 0 0 0 0 0 0 0 0 0 0 0 0 0 0 0 0
Wind_Speed
12 12 13 12 11 11 11 10 9 10 9 9 9 9 9 8 7 7 8 7 7 7 6 7 7 6 4 3 3 3 3 3 1 2 1 2 2 5 5 6 6 6 1
12 12 12 12 12 11 12 11 10 10 9 9 9 9 8 8 7 7 7 7 7 7 6 6 6 4 4 4 3 3 3 3 3 2 2 1 2 3 4 6 5 5 6
12 12 12 12 12 11 11 10 10 10 9 9 9 8 8 7 7 7 6 6 6 6 6 5 5 5 4 4 3 3 2 2 2 3 2 2 3 3 5 5 4 4 6
12 12 12 11 10 10 10 10 9 9 9 8 8 8 7 7 7 6 6 6 6 6 5 5 5 5 5 4 3 3 3 3 2 3 3 2 2 2 4 5 4 4 4
11 12 11 10 10 9 10 9 9 8 8 8 8 7 7 7 7 6 5 5 5 5 4 4 6 6 7 6 6 6 5 4 4 3 3 3 3 4 4 5 6 6 3
11 11 10 10 9 9 9 8 8 8 7 7 8 8 8 8 8 9 6 4 4 4 4 3 4 3 2 3 3 5 6 7 7 6 5 5 5 5 5 6 6 6 5
10 10 9 9 9 8 8 8 8 7 7 7 7 8 9 9 7 7 8 3 3 3 3 2 2 3 2 3 3 8 8 8 7 7 8 7 7 6 7 8 6 7 7
9 8 8 8 8 7 7 7 6 6 6 6 6 7 8 8 6 6 9 2 3 2 2 2 3 3 6 6 6 4 2 1 3 6 6 7 7 7 7 8 8 8 8
8 8 7 7 7 7 7 6 6 5 6 5 6 6 6 7 6 7 11 1 2 2 2 3 4 4 6 7 7 5 4 2 4 7 8 9 9 9 8 8 7 7 6
8 7 7 7 7 7 7 6 5 4 5 5 6 5 5 6 6 6 11 3 2 1 2 4 6 5 6 7 7 6 6 6 6 4 6 8 9 8 10 8 7 7 6
7 7 7 6 6 6 6 5 4 4 4 4 5 5 5 5 5 5 8 6 5 3 2 2 6 5 5 5 7 6 6 8 8 6 4 3 3 2 2 3 4 6 7
6 6 6 5 4 5 5 4 3 3 4 4 4 3 4 4 4 4 4 4 7 5 4 4 6 4 3 4 4 5 8 10 6 5 4 4 4 4 4 5 5 5 5
5 6 6 6 4 4 3 3 3 2 2 3 3 3 3 3 5 4 3 2 4 4 4 5 3 3 5 3 1 5 8 5 6 5 5 5 5 5 5 4 4 4 6
5 5 5 4 4 4 2 3 3 3 3 2 3 3 3 3 4 3 1 2 5 3 1 3 7 7 5 2 2 3 4 5 6 6 6 5 5 4 4 4 5 5 4
5 4 3 4 4 4 5 5 5 7 7 6 4 3 3 5 7 7 7 6 7 6 6 3 2 2 3 3 4 4 4 4 5 5 5 5 5 5 5 4 4 6 5
3 3 3 3 3 3 4 6 6 5 4 4 5 6 5 7 4 4 4 4 5 7 7 3 3 4 5 5 5 5 5 5 6 6 5 5 5 6 6 5 5 5 6
3 2 2 2 2 2 2 3 5 5 3 2 1 1 4 4 2 2 2 4 6 7 4 3 4 4 5 5 6 6 6 6 5 6 5 5 6 6 6 6 6 6 6
3 3 1 2 2 2 2 1 2 3 4 5 6 3 2 1 1 2 4 6 4 3 3 4 4 4 5 5 6 6 6 6 5 6 5 6 6 6 6 6 6 7 7
2 2 1 1 1 2 2 2 2 2 2 2 5 7 6 5 6 5 6 4 3 3 4 4 4 5 5 5 5 5 5 5 6 6 5 6 6 6 6 7 6 5 6
2 3 1 1 2 2 2 2 2 2 2 2 2 2 3 3 2 2 1 2 3 3 4 4 4 5 5 5 5 5 5 5 5 5 5 5 6 6 7 7 7 7 6
3 5 5 3 1 2 2 2 2 2 2 2 3 5 5 3 1 2 2 2 3 4 4 4 4 4 5 5 6 6 7 6 5 6 6 6 6 6 6 6 7 7 6
2 2 3 1 2 2 1 2 2 2 2 2 2 5 3 4 1 2 2 2 2 2 3 4 5 5 5 6 6 6 6 6 6 7 7 7 6 6 6 6 6 7 7
2 2 2 2 2 3 3 2 2 2 2 1 1 1 1 1 1 1 2 2 2 2 3 3 4 5 6 5 5 5 6 7 8 8 8 8 7 7 6 6 7 7 6
2 2 2 2 2 3 3 2 2 2 1 1 1 0 1 1 1 2 2 2 2 2 2 3 4 5 6 6 5 5 7 8 10 8 10 9 8 7 7 6 6 8 7
2 2 2 2 2 2 3 2 2 2 2 1 1 1 0 0 0 0 1 1 1 2 2 2 3 3 5 6 7 8 7 6 7 9 10 8 8 7 7 7 6 6 6
3 2 2 2 2 2 2 3 2 2 2 2 2 1 1 1 1 0 0 1 2 1 1 1 2 3 4 4 7 7 5 7 7 8 9 9 7 6 8 7 7 6 6
Wind_Direction
85 87 87 86 85 84 84 81 82 82 81 81 81 80 80 82 83 82 86 91 88 87 85 81 70 50 49 53 51 47 38 11 349 65 38 63 334 318 332 319 305 299 280
91 91 91 91 88 86 84 81 80 79 78 79 82 82 83 82 82 86 90 91 91 89 83 78 73 70 58 41 32 39 44 14 332 358 337 354 327 309 320 303 310 321 314
93 93 91 90 89 89 88 87 85 83 80 81 82 83 83 83 82 82 84 85 83 81 76 71 67 61 49 46 15 25 23 17 341 316 328 347 307 339 310 297 310 307 298
94 93 92 91 92 92 92 90 87 84 82 80 79 81 82 82 82 83 85 84 84 82 75 68 59 50 40 24 23 19 0 331 316 298 319 321 313 334 306 321 326 326 319
98 97 96 95 95 93 90 88 86 84 84 83 84 85 84 78 60 54 81 87 88 89 84 72 62 48 28 357 353 358 342 326 323 328 325 332 351 342 340 335 329 320 322
104 104 104 103 99 95 94 92 89 86 86 88 87 84 77 67 42 18 2 83 82 79 75 72 105 130 109 222 275 308 320 320 335 330 336 347 344 343 346 323 323 325 329
104 105 107 106 103 101 100 100 99 98 93 90 88 87 84 72 41 20 357 354 69 60 49 33 35 70 290 350 221 224 234 237 261 306 321 334 332 348 332 321 332 325 320
108 108 107 108 105 104 103 101 101 100 99 97 93 91 89 75 41 14 336 308 64 56 34 17 2 18 35 346 324 323 320 216 226 256 305 314 326 331 316 301 298 289 280
109 106 104 103 101 102 98 97 98 102 103 106 99 95 93 88 48 8 329 301 83 76 60 40 357 29 51 337 307 329 340 349 202 233 266 281 291 284 282 292 302 306 322
103 99 97 95 94 94 93 95 99 107 109 106 100 94 86 83 65 15 336 325 46 57 114 125 89 21 2 329 317 340 350 353 337 309 252 245 250 238 227 259 301 318 328
100 99 96 95 95 94 95 96 104 105 101 98 107 109 97 79 98 47 359 341 358 356 40 70 78 42 0 332 312 343 347 316 304 305 308 310 304 290 254 272 309 313 326
107 105 104 100 93 95 96 97 97 112 130 125 126 127 119 117 72 72 18 356 330 335 9 33 59 28 354 336 342 352 309 292 301 324 330 335 339 346 348 334 322 308 300
109 104 102 99 85 82 93 105 122 132 112 113 123 113 108 108 127 169 205 251 292 319 24 33 355 302 272 228 182 289 295 313 336 335 340 341 339 340 314 304 296 284 273
115 115 116 108 104 94 73 76 72 69 79 93 84 78 89 97 63 48 50 181 210 233 264 174 216 240 260 309 271 280 329 356 336 332 335 330 328 325 318 333 333 324 317
123 127 122 110 96 98 79 49 42 55 34 13 33 39 43 65 49 13 344 358 356 6 328 306 321 341 337 1 356 356 344 346 342 344 334 331 335 336 336 339 331 322 326
129 134 133 122 114 115 122 119 68 58 78 51 22 1 53 57 32 1 346 329 316 313 304 340 5 2 0 0 353 349 351 358 349 336 334 335 338 336 335 335 337 336 333
118 112 109 103 117 113 115 130 139 142 155 149 120 14 5 16 1 330 305 293 283 287 295 10 9 5 359 355 351 349 350 354 339 328 335 337 334 332 331 333 339 342 340
143 128 163 130 104 95 93 97 114 139 155 157 157 158 159 169 255 276 278 273 248 254 5 14 7 4 0 353 350 350 344 341 341 335 336 336 334 330 330 333 339 349 337
172 137 131 104 123 108 110 111 106 96 101 121 135 147 175 188 205 238 264 286 356 18 16 12 8 3 357 350 347 344 339 336 342 328 332 334 332 328 332 334 336 340 313
135 75 308 229 160 133 127 117 110 108 94 90 98 96 142 194 206 183 220 1 359 19 11 7 7 360 352 344 341 341 339 338 337 329 338 333 330 327 330 330 332 333 334
152 144 194 229 173 134 132 122 113 106 91 96 86 67 355 319 38 38 23 17 10 11 12 355 349 356 359 348 350 350 344 342 346 344 339 337 333 330 325 325 330 333 339
167 161 175 147 130 130 133 152 144 129 117 114 123 138 195 266 8 19 22 20 19 9 13 354 348 2 7 356 354 343 343 348 353 348 338 332 329 330 331 334 341 340 343
194 154 147 142 138 137 204 184 159 149 129 111 101 101 152 23 15 19 19 12 5 5 3 355 348 7 12 359 348 341 351 355 345 334 325 324 326 329 332 337 337 341 358
174 172 153 144 164 178 176 162 162 162 151 128 128 112 78 66 7 23 353 4 2 357 358 0 6 10 5 354 340 359 23 358 333 318 320 318 318 326 331 334 339 353 356
184 183 183 168 170 173 169 173 168 167 170 176 196 216 176 209 325 13 2 9 346 3 8 357 1 8 4 359 4 14 14 337 318 316 308 302 313 326 330 336 346 354 1
187 191 198 176 165 175 182 185 180 182 192 197 206 215 248 262 272 328 338 341 329 15 351 359 18 5 354 359 24 11 345 329 320 307 298 298 317 346 343 337 348 357 10